When you browse on this site, cookies collect data to enhance your experience and personalize the content and advertising you see.
Visit our Privacy Policy to learn more. By continuing to use the site, you agree to this use of cookies and data.
  • In United Kingdom
  • List of Countries
  • For 7 days
  • Water Temperature
  • Weather Map
  • Weather Widgets
  • user-avatar
    Login

    Hourly Weather Kalat

    Today, 20 September, Friday

    Time Temperature Precipitation Wind Pressure Humidity
    00:00 +5°C° 0 mm 2 mps 480 mmHg 35%
    01:00 +5°C° 0 mm 1 mps 479 mmHg 37%
    02:00 +4°C° 0 mm 1 mps 479 mmHg 39%
    03:00 +4°C° 0 mm 1 mps 478 mmHg 40%
    04:00 +3°C° 0 mm 1 mps 478 mmHg 41%
    05:00 +3°C° 0 mm 1 mps 478 mmHg 42%
    06:00 +4°C° 0 mm 1 mps 478 mmHg 38%
    07:00 +4°C° 0 mm 1 mps 479 mmHg 34%
    08:00 +5°C° 0 mm 1 mps 479 mmHg 31%
    09:00 +7°C° 0 mm 1 mps 480 mmHg 27%
    10:00 +8°C° 0 mm 1 mps 481 mmHg 24%
    11:00 +10°C° 0 mm 1 mps 482 mmHg 20%
    12:00 +10°C° 0 mm 2 mps 482 mmHg 19%
    13:00 +12°C° 0 mm 2 mps 482 mmHg 17%
    14:00 +13°C° 0 mm 2 mps 483 mmHg 15%
    15:00 +12°C° 0 mm 3 mps 483 mmHg 16%
    16:00 +11°C° 0 mm 3 mps 483 mmHg 17%
    17:00 +11°C° 0 mm 4 mps 482 mmHg 18%
    18:00 +10°C° 0 mm 4 mps 482 mmHg 22%
    19:00 +9°C° 0 mm 3 mps 481 mmHg 26%
    20:00 +7°C° 0 mm 3 mps 481 mmHg 30%
    21:00 +7°C° 0 mm 3 mps 481 mmHg 33%
    22:00 +6°C° 0 mm 2 mps 480 mmHg 35%
    23:00 +5°C° 0 mm 2 mps 480 mmHg 38%

    Tomorrow, 21 September, Saturday

    Time Temperature Precipitation Wind Pressure Humidity
    00:00 +4°C° 0 mm 2 mps 479 mmHg 40%
    01:00 +5°C° 0 mm 1 mps 478 mmHg 42%
    02:00 +4°C° 0 mm 1 mps 478 mmHg 44%
    03:00 +4°C° 0 mm 1 mps 477 mmHg 45%
    04:00 +3°C° 0 mm 1 mps 477 mmHg 45%
    05:00 +3°C° 0 mm 1 mps 477 mmHg 46%
    06:00 +4°C° 0 mm 1 mps 477 mmHg 41%
    07:00 +5°C° 0 mm 1 mps 478 mmHg 37%
    08:00 +5°C° 0 mm 1 mps 479 mmHg 32%
    09:00 +7°C° 0 mm 1 mps 480 mmHg 28%
    10:00 +8°C° 0 mm 0 mps 481 mmHg 24%
    11:00 +10°C° 0 mm 0 mps 482 mmHg 19%
    12:00 +12°C° 0 mm 1 mps 482 mmHg 17%
    13:00 +13°C° 0 mm 1 mps 483 mmHg 15%
    14:00 +14°C° 0 mm 2 mps 483 mmHg 12%
    15:00 +14°C° 0 mm 2 mps 483 mmHg 13%
    16:00 +13°C° 0 mm 3 mps 483 mmHg 13%
    17:00 +13°C° 0 mm 3 mps 483 mmHg 14%
    18:00 +12°C° 0 mm 3 mps 482 mmHg 19%
    19:00 +10°C° 0 mm 2 mps 482 mmHg 23%
    20:00 +9°C° 0 mm 2 mps 481 mmHg 28%
    21:00 +9°C° 0 mm 1 mps 481 mmHg 30%
    22:00 +8°C° 0 mm 1 mps 480 mmHg 33%
    23:00 +7°C° 0 mm 0 mps 479 mmHg 35%

    Day after tomorrow, 22 September, Sunday

    Time Temperature Precipitation Wind Pressure Humidity
    00:00 +6°C° 0 mm 0 mps 479 mmHg 35%
    01:00 +5°C° 0 mm 0 mps 478 mmHg 35%
    02:00 +5°C° 0 mm 0 mps 478 mmHg 34%
    03:00 +4°C° 0 mm 0 mps 477 mmHg 32%
    04:00 +4°C° 0 mm 0 mps 477 mmHg 30%
    05:00 +3°C° 0 mm 0 mps 477 mmHg 29%
    06:00 +5°C° 0 mm 0 mps 478 mmHg 24%
    07:00 +7°C° 0 mm 0 mps 480 mmHg 19%
    08:00 +10°C° 0 mm 1 mps 482 mmHg 13%
    09:00 +11°C° 0 mm 1 mps 483 mmHg 12%
    10:00 +13°C° 0 mm 1 mps 483 mmHg 10%
    11:00 +14°C° 0 mm 1 mps 484 mmHg 8%
    12:00 +15°C° 0 mm 1 mps 485 mmHg 7%
    13:00 +16°C° 0 mm 2 mps 485 mmHg 6%
    14:00 +17°C° 0 mm 2 mps 485 mmHg 6%
    15:00 +17°C° 0 mm 3 mps 485 mmHg 7%
    16:00 +16°C° 0 mm 3 mps 485 mmHg 8%
    17:00 +15°C° 0 mm 4 mps 485 mmHg 9%
    18:00 +14°C° 0 mm 4 mps 484 mmHg 13%
    19:00 +12°C° 0 mm 3 mps 484 mmHg 18%
    20:00 +10°C° 0 mm 3 mps 483 mmHg 22%
    21:00 +10°C° 0 mm 2 mps 483 mmHg 24%
    22:00 +9°C° 0 mm 2 mps 482 mmHg 26%
    23:00 +8°C° 0 mm 2 mps 482 mmHg 28%

    23 September, Monday

    Time Temperature Precipitation Wind Pressure Humidity
    00:00 +7°C° 0 mm 2 mps 481 mmHg 29%
    01:00 +6°C° 0 mm 2 mps 481 mmHg 30%
    02:00 +6°C° 0 mm 1 mps 481 mmHg 31%
    03:00 +6°C° 0 mm 1 mps 480 mmHg 31%
    04:00 +5°C° 0 mm 1 mps 480 mmHg 31%
    05:00 +4°C° 0 mm 1 mps 479 mmHg 32%
    06:00 +5°C° 0 mm 1 mps 480 mmHg 28%
    07:00 +6°C° 0 mm 1 mps 481 mmHg 24%
    08:00 +7°C° 0 mm 1 mps 482 mmHg 21%
    09:00 +9°C° 0 mm 1 mps 483 mmHg 18%
    10:00 +10°C° 0 mm 1 mps 484 mmHg 16%
    11:00 +12°C° 0 mm 1 mps 485 mmHg 14%
    12:00 +13°C° 0 mm 1 mps 485 mmHg 13%
    13:00 +14°C° 0 mm 2 mps 486 mmHg 12%
    14:00 +16°C° 0 mm 2 mps 486 mmHg 11%
    15:00 +16°C° 0 mm 2 mps 486 mmHg 12%
    16:00 +14°C° 0 mm 3 mps 486 mmHg 13%
    17:00 +14°C° 0 mm 3 mps 486 mmHg 14%
    18:00 +14°C° 0 mm 2 mps 485 mmHg 19%
    19:00 +12°C° 0 mm 2 mps 484 mmHg 25%
    20:00 +11°C° 0 mm 1 mps 483 mmHg 30%
    21:00 +10°C° 0 mm 1 mps 483 mmHg 32%
    22:00 +9°C° 0 mm 1 mps 482 mmHg 35%
    23:00 +8°C° 0 mm 0 mps 482 mmHg 37%

    24 September, Tuesday

    Time Temperature Precipitation Wind Pressure Humidity
    00:00 +7°C° 0 mm 0 mps 481 mmHg 37%
    01:00 +6°C° 0 mm 0 mps 481 mmHg 37%
    02:00 +6°C° 0 mm 0 mps 480 mmHg 37%
    03:00 +5°C° 0 mm 0 mps 480 mmHg 35%
    04:00 +5°C° 0 mm 0 mps 479 mmHg 33%
    05:00 +4°C° 0 mm 0 mps 479 mmHg 32%
    06:00 +6°C° 0 mm 0 mps 480 mmHg 27%
    07:00 +8°C° 0 mm 0 mps 482 mmHg 22%
    08:00 +10°C° 0 mm 1 mps 483 mmHg 17%
    09:00 +12°C° 0 mm 1 mps 484 mmHg 16%
    10:00 +13°C° 0 mm 1 mps 485 mmHg 14%
    11:00 +14°C° 0 mm 1 mps 486 mmHg 12%
    12:00 +15°C° 0 mm 2 mps 486 mmHg 12%
    13:00 +16°C° 0 mm 2 mps 486 mmHg 11%
    14:00 +17°C° 0 mm 2 mps 486 mmHg 11%
    15:00 +16°C° 0 mm 3 mps 486 mmHg 13%
    16:00 +16°C° 0 mm 3 mps 486 mmHg 15%
    17:00 +15°C° 0 mm 4 mps 486 mmHg 17%
    18:00 +13°C° 0 mm 3 mps 485 mmHg 24%
    19:00 +12°C° 0 mm 3 mps 484 mmHg 30%
    20:00 +10°C° 0 mm 3 mps 484 mmHg 37%
    21:00 +9°C° 0 mm 2 mps 483 mmHg 39%
    22:00 +9°C° 0 mm 1 mps 483 mmHg 42%
    23:00 +9°C° 0 mm 1 mps 482 mmHg 45%

    25 September, Wednesday

    Time Temperature Precipitation Wind Pressure Humidity
    00:00 +8°C° 0 mm 1 mps 481 mmHg 47%
    01:00 +6°C° 0 mm 0 mps 481 mmHg 49%
    02:00 +6°C° 0 mm 0 mps 480 mmHg 51%
    03:00 +5°C° 0 mm 0 mps 480 mmHg 52%
    04:00 +5°C° 0 mm 0 mps 479 mmHg 52%
    05:00 +4°C° 0 mm 0 mps 479 mmHg 52%
    06:00 +5°C° 0 mm 0 mps 480 mmHg 46%
    07:00 +7°C° 0 mm 0 mps 481 mmHg 39%
    08:00 +8°C° 0 mm 0 mps 482 mmHg 32%
    09:00 +9°C° 0 mm 0 mps 483 mmHg 27%
    10:00 +11°C° 0 mm 0 mps 484 mmHg 22%
    11:00 +13°C° 0 mm 0 mps 485 mmHg 16%
    12:00 +15°C° 0 mm 1 mps 486 mmHg 14%
    13:00 +16°C° 0 mm 1 mps 486 mmHg 13%
    14:00 +17°C° 0 mm 2 mps 487 mmHg 11%
    15:00 +16°C° 0 mm 3 mps 486 mmHg 12%
    16:00 +16°C° 0 mm 3 mps 486 mmHg 13%
    17:00 +15°C° 0 mm 4 mps 486 mmHg 15%
    18:00 +13°C° 0 mm 4 mps 486 mmHg 21%
    19:00 +12°C° 0 mm 3 mps 485 mmHg 27%
    20:00 +10°C° 0 mm 3 mps 484 mmHg 33%
    21:00 +10°C° 0 mm 2 mps 484 mmHg 36%
    22:00 +9°C° 0 mm 2 mps 483 mmHg 40%
    23:00 +9°C° 0 mm 1 mps 483 mmHg 43%
    Show more